Location: Newark
(30.4994°N, 96.8283°W)
Time: 00:46:51
(UTC+00:00)

Envisat - Pass Details

Date: 25 November 2019
Orbit: 764 x 766 km, 98.1° (Epoch: 05 December)

Event Time Altitude Azimuth Distance (km) Brightness Sun altitude
Rises 00:06:44 0° 152° (SSE) 3,217 6.1 -8.8°
Reaches altitude 10° 00:09:06 10° 146° (SE) 2,294 5.3 -9.3°
Maximum altitude 00:13:55 46° 74° (ENE) 1,020 3.2 -10.3°
Drops below altitude 10° 00:18:45 10° 2° (N) 2,304 5.3 -11.3°
Sets 00:21:08 0° 356° (N) 3,233 6.1 -11.8°
